カタログに戻る

STARLINK-3460

運用中通信VLEO
NORAD 51755·PAYLOAD·🇺🇸 United States

打ち上げ Feb 21, 2022 から Cape Canaveral Space Force Station

Loading…

次のパス (今後24時間)

TLE

最新Source: CelesTrak SupGP

元期: Sep 15, 2026, 01:22 UTC

1 51755C 22016AT  26258.05743056 -.00012339  00000+0 -36463-3 0  2589
2 51755  53.1570 165.5176 0001389  88.5792 309.8269 15.34391788    14

AllMySatでSTARLINK-3460をリアルタイム追跡

Download on the App Store